Wind_Speed
5 6 7 7 7 6 6 6 6 6 6 6 7 7 8 9 9 10 11 11 12 12 11 11 11 11 10 10 9 9 9 8 8 8 7 7 7 6 6 5 4 3 3
6 7 8 8 7 7 7 7 7 7 7 7 8 8 9 9 10 11 11 11 12 12 12 12 12 11 10 10 10 9 9 9 9 8 8 8 7 7 6 5 4 3 3
7 8 8 8 8 8 8 7 8 8 9 9 9 10 10 11 11 11 12 12 12 13 13 13 12 12 11 10 10 10 10 9 9 9 9 9 8 7 6 6 5 5 4
8 9 9 9 9 9 9 9 9 9 10 10 11 11 12 12 13 13 13 13 14 14 14 14 13 13 12 11 11 10 10 10 10 10 9 9 8 7 7 7 6 6 5
9 10 10 10 11 10 10 10 10 10 11 12 12 13 13 14 15 15 15 15 15 15 15 15 14 13 13 12 12 12 11 11 10 10 10 10 9 9 8 8 8 7 6
11 11 11 11 11 11 11 11 11 12 12 13 14 14 15 16 16 16 17 17 17 17 17 16 15 14 14 14 13 13 13 12 12 12 11 11 11 10 10 9 9 8 7
13 13 12 12 12 12 12 12 12 13 14 15 15 16 17 17 17 18 18 18 18 18 18 18 17 16 16 15 15 15 14 14 13 12 12 12 12 12 11 11 10 9 9
14 14 14 13 12 12 13 13 13 13 14 15 16 17 18 19 19 19 19 19 19 20 20 19 19 19 18 18 17 16 16 15 14 14 13 14 13 13 13 12 12 11 10
14 15 15 14 13 13 14 14 14 14 15 16 17 18 18 19 19 19 19 19 20 21 21 21 22 21 20 20 19 18 17 16 16 15 15 15 14 14 14 14 13 13 12
15 15 15 15 15 15 15 15 15 16 16 17 18 18 19 19 20 20 20 20 21 21 22 22 22 22 22 21 21 20 18 18 18 17 17 16 15 15 15 15 14 13 13
15 15 15 16 16 16 16 16 16 17 17 18 19 19 20 20 20 21 21 21 21 21 23 24 24 23 23 23 22 22 21 20 20 19 18 17 16 16 16 15 14 15 15
16 16 16 17 17 17 17 17 17 18 18 19 20 20 21 20 20 21 21 22 23 23 23 24 25 25 24 23 23 23 23 22 21 21 20 19 18 17 17 16 16 16 16
16 16 16 17 18 18 18 19 18 19 19 19 20 21 21 21 22 22 22 23 24 24 24 25 26 26 25 25 24 24 24 23 22 21 21 20 20 19 18 17 17 16 17
17 17 17 19 19 19 19 19 19 19 20 20 21 21 22 22 23 24 23 24 24 25 25 25 26 27 27 26 25 25 24 24 23 22 22 22 21 20 19 18 18 18 17
17 18 19 19 19 20 20 20 20 20 20 21 22 22 23 24 24 25 25 25 25 25 26 26 27 27 27 26 26 26 25 24 24 23 23 23 23 22 21 20 19 19 18
18 18 19 19 20 20 20 20 21 21 21 22 22 22 23 24 25 26 26 26 26 26 26 27 27 27 27 27 26 26 26 25 25 25 24 24 24 23 22 22 22 21 21
18 18 19 20 20 21 21 21 21 22 22 22 23 24 24 25 26 26 26 27 27 27 26 26 26 27 27 26 26 26 25 25 25 25 25 25 25 24 23 23 23 23 22
18 19 19 20 21 21 21 21 22 22 23 24 24 25 26 26 27 27 28 28 28 28 27 26 26 26 27 26 26 26 26 26 26 26 26 26 26 25 25 25 24 23 23
20 20 21 21 22 22 21 22 23 23 23 24 25 26 27 27 28 28 29 28 28 28 28 27 27 26 25 26 26 26 26 26 26 26 26 26 25 25 25 24 24 24 24
21 21 22 21 22 22 23 23 23 24 25 26 27 27 28 28 28 28 28 28 29 28 28 28 27 27 26 26 27 27 26 26 25 25 26 26 26 26 25 25 24 24 24
22 23 23 23 23 23 24 25 25 26 27 28 28 28 29 28 28 28 29 29 29 29 28 28 27 27 27 27 27 27 27 27 27 26 26 26 26 26 26 25 25 25 25
23 23 23 24 25 25 25 26 27 28 28 29 29 29 29 29 29 28 28 29 29 29 29 28 28 27 27 27 27 27 27 27 27 27 26 26 25 25 26 26 25 25 25
24 24 24 25 26 26 27 28 28 28 29 29 29 29 29 28 27 27 27 27 27 28 28 28 29 28 27 27 27 27 27 27 27 27 27 26 25 25 25 25 26 25 25
25 25 25 26 26 27 28 28 29 29 29 29 29 29 28 28 27 26 25 26 27 27 27 28 28 28 28 28 27 27 27 27 27 27 27 26 25 25 25 25 25 25 25
26 26 27 27 27 27 28 28 28 29 28 28 29 28 28 27 27 26 26 26 26 26 26 26 26 26 27 27 26 26 27 27 27 27 27 26 25 24 24 24 25 24 24
26 27 27 27 26 27 28 28 28 28 28 28 28 27 27 26 25 25 26 26 25 26 26 25 25 25 26 25 26 26 26 26 27 27 26 26 25 25 25 25 25 24 25
Wind_Direction
335 330 320 318 319 320 322 324 328 330 331 330 328 325 323 322 322 322 322 320 318 317 316 317 315 314 314 316 317 319 319 322 324 325 325 328 328 324 319 317 316 315 307
322 319 314 312 313 316 317 316 316 318 318 317 316 314 312 311 312 313 313 313 311 311 312 312 312 310 309 311 313 315 316 317 318 319 318 318 319 316 310 305 302 294 286
312 312 307 307 308 309 309 308 308 308 309 308 307 307 306 305 305 305 304 305 305 306 307 307 307 307 305 305 305 307 310 311 310 310 309 309 309 307 302 297 296 286 273
305 305 303 303 306 304 301 300 300 301 302 301 299 299 300 301 300 299 298 299 299 301 303 304 302 302 300 298 297 299 302 304 302 301 299 302 302 300 297 294 295 287 271
301 300 299 300 301 300 298 298 298 298 298 297 295 293 294 295 295 295 294 295 294 295 296 299 298 298 296 293 291 291 294 296 296 296 295 295 294 294 294 293 296 290 279
298 297 297 298 296 297 298 297 295 294 294 292 290 290 291 293 293 291 292 292 291 292 292 293 293 293 292 291 289 288 289 290 293 293 292 293 292 291 293 292 292 290 283
297 296 294 294 295 295 295 296 295 293 291 290 289 288 289 291 291 290 289 288 288 288 289 288 289 289 288 288 287 287 288 289 291 292 291 293 295 293 290 290 287 285 280
295 293 291 290 293 295 295 295 294 293 291 290 291 290 289 290 290 290 289 287 286 286 285 285 284 284 284 285 284 284 285 286 287 287 288 290 295 293 290 287 284 281 279
292 290 290 292 293 295 296 295 293 292 292 290 291 291 291 291 289 287 287 286 285 284 283 283 281 281 281 282 281 280 281 282 282 283 285 286 288 291 289 286 282 277 274
293 290 290 292 294 295 295 295 294 292 292 292 292 291 290 290 289 287 285 284 284 284 283 282 281 280 280 281 280 278 277 277 278 278 282 283 284 286 287 283 280 275 270
291 293 294 294 295 296 295 295 294 292 291 292 293 292 290 289 289 287 285 284 282 283 283 282 280 277 279 279 278 276 276 275 276 276 278 279 279 280 281 281 278 275 272
292 292 291 293 295 296 297 296 294 291 290 290 291 290 290 288 287 286 284 284 283 283 282 280 281 278 277 277 277 275 274 273 273 273 275 276 277 276 276 276 275 274 270
291 293 293 294 294 296 295 293 292 291 289 289 289 288 288 286 285 285 283 283 284 283 282 279 278 277 275 275 275 274 273 272 270 271 272 273 274 273 274 274 273 271 269
289 292 290 290 289 291 290 289 290 290 289 288 288 288 288 286 285 285 283 284 284 282 281 280 278 277 273 272 272 273 273 270 269 270 270 270 270 270 270 270 270 269 269
285 288 289 289 289 291 291 288 288 290 291 292 291 289 288 287 286 285 284 284 283 282 281 279 277 277 273 269 271 271 271 270 268 268 269 268 267 267 265 266 267 268 268
284 285 287 289 290 290 289 288 289 290 292 291 291 292 289 287 286 284 283 283 283 282 282 279 275 275 273 269 268 267 267 268 267 267 267 267 265 265 264 264 265 265 267
284 286 289 290 290 290 287 287 288 289 290 292 292 291 290 288 285 284 283 282 282 282 281 279 276 276 273 268 265 265 266 266 266 264 265 265 263 264 265 265 265 266 265
286 286 288 289 289 289 287 288 289 289 291 292 292 291 291 289 288 283 282 282 280 281 280 278 277 275 271 266 264 263 263 263 262 262 263 263 263 263 264 264 263 264 264
285 285 288 289 290 289 289 289 289 290 292 294 294 292 291 289 287 284 282 280 278 277 277 276 275 272 271 267 262 262 262 261 261 262 262 263 263 263 263 262 262 261 262
285 287 289 290 290 289 290 291 290 293 294 294 293 291 291 289 286 284 282 280 277 275 274 274 274 270 269 267 264 262 261 261 262 263 264 264 263 262 263 262 261 261 262
289 290 289 289 290 290 291 293 292 294 294 293 292 291 290 288 286 285 283 280 277 275 273 272 271 270 267 266 264 263 262 264 263 263 264 263 262 263 263 262 261 260 261
290 290 290 290 290 292 293 294 294 295 296 293 292 292 290 289 287 285 282 279 276 274 272 270 269 269 267 266 264 263 264 264 263 262 262 262 260 260 260 261 262 261 259
293 293 292 291 291 291 293 293 294 295 296 294 292 291 291 290 288 287 284 279 277 274 272 269 268 266 266 266 264 263 263 262 263 263 261 260 259 260 260 262 262 260 259
292 293 292 291 291 291 293 294 295 295 296 295 295 294 292 291 289 286 285 280 276 274 273 271 269 266 266 265 264 263 262 261 261 263 261 260 259 260 260 261 260 259 259
292 292 290 291 290 290 291 294 296 295 296 295 294 294 293 291 288 286 285 282 278 275 274 273 270 268 266 264 263 264 263 261 260 261 261 259 258 259 258 258 258 258 259
292 293 291 294 293 293 293 295 296 296 296 296 296 296 295 292 289 288 287 284 279 276 274 273 272 268 265 264 263 264 263 262 260 259 259 260 261 259 258 257 257 258 259
Height
5906 5906 5906 5905 5905 5904 5903 5903 5903 5903 5903 5903 5903 5903 5903 5903 5903 5903 5903 5903 5902 5902 5901 5901 5900 5900 5899 5898 5898 5897 5896 5895 5895 5894 5893 5893 5893 5892 5892 5892 5891 5891 5891
5906 5905 5905 5905 5904 5903 5903 5902 5902 5902 5902 5902 5902 5902 5902 5902 5902 5902 5902 5902 5901 5901 5900 5900 5900 5899 5898 5898 5897 5896 5896 5895 5894 5894 5893 5892 5892 5892 5891 5891 5891 5891 5891
5905 5904 5904 5903 5903 5902 5901 5901 5901 5901 5901 5901 5901 5901 5901 5901 5901 5901 5900 5900 5900 5899 5899 5899 5898 5898 5897 5897 5896 5896 5895 5894 5894 5893 5893 5892 5892 5891 5891 5891 5890 5890 5890
5903 5903 5903 5902 5901 5901 5900 5900 5899 5899 5899 5899 5899 5899 5899 5899 5899 5898 5898 5898 5898 5897 5897 5897 5896 5896 5896 5896 5895 5895 5894 5893 5893 5892 5892 5892 5891 5891 5890 5890 5889 5889 5889
5902 5901 5901 5901 5900 5900 5899 5898 5898 5898 5897 5897 5897 5896 5896 5896 5896 5896 5896 5895 5895 5895 5895 5894 5894 5894 5894 5894 5894 5893 5893 5892 5892 5891 5891 5890 5890 5889 5889 5888 5888 5887 5887
5901 5900 5900 5899 5899 5898 5897 5897 5896 5896 5895 5895 5895 5894 5894 5894 5893 5893 5893 5892 5892 5892 5892 5892 5892 5892 5892 5892 5891 5891 5891 5890 5890 5889 5889 5888 5888 5888 5887 5887 5886 5886 5886
5899 5899 5898 5897 5897 5896 5896 5895 5894 5894 5893 5893 5892 5892 5891 5891 5891 5890 5890 5889 5889 5889 5889 5889 5889 5889 5889 5889 5889 5888 5888 5888 5887 5887 5887 5886 5886 5886 5885 5885 5885 5884 5884
5898 5897 5896 5895 5895 5894 5894 5893 5892 5892 5891 5891 5890 5889 5889 5888 5888 5887 5887 5886 5886 5886 5886 5886 5885 5885 5886 5886 5886 5885 5885 5885 5885 5884 5884 5884 5883 5883 5883 5882 5882 5882 5882
5895 5894 5894 5893 5893 5892 5891 5890 5890 5889 5889 5888 5887 5887 5886 5885 5885 5884 5884 5883 5883 5882 5882 5882 5882 5882 5882 5882 5882 5882 5882 5882 5882 5882 5881 5881 5881 5880 5880 5880 5880 5880 5880
5893 5892 5892 5891 5890 5889 5888 5888 5887 5886 5886 5885 5884 5884 5883 5882 5882 5881 5880 5880 5879 5879 5879 5878 5878 5878 5878 5879 5878 5878 5879 5879 5879 5878 5878 5878 5878 5877 5877 5877 5877 5877 5877
5890 5889 5889 5888 5888 5887 5886 5885 5884 5883 5883 5882 5881 5880 5880 5879 5878 5878 5877 5876 5876 5875 5875 5874 5874 5874 5874 5874 5874 5875 5875 5875 5875 5875 5875 5875 5874 5874 5874 5874 5874 5874 5874
5888 5887 5886 5886 5885 5884 5883 5882 5881 5880 5879 5878 5877 5877 5876 5875 5874 5874 5873 5872 5872 5871 5871 5870 5870 5870 5870 5870 5870 5870 5870 5870 5870 5870 5871 5871 5871 5871 5870 5870 5870 5870 5871
5885 5884 5883 5883 5882 5881 5880 5879 5878 5877 5875 5874 5873 5873 5872 5871 5870 5869 5869 5868 5867 5866 5866 5865 5865 5865 5865 5865 5865 5865 5866 5866 5866 5866 5866 5867 5867 5867 5866 5866 5866 5867 5867
5882 5881 5880 5879 5878 5878 5877 5875 5874 5873 5871 5870 5869 5868 5868 5867 5866 5865 5864 5863 5862 5861 5861 5860 5860 5859 5859 5860 5860 5860 5860 5861 5861 5861 5862 5862 5862 5862 5862 5862 5862 5862 5863
5878 5877 5876 5876 5875 5873 5872 5871 5870 5868 5867 5866 5865 5864 5863 5862 5861 5860 5859 5858 5857 5856 5855 5855 5855 5854 5854 5854 5854 5854 5855 5855 5856 5856 5856 5857 5857 5857 5857 5858 5858 5858 5858
5874 5873 5872 5871 5870 5869 5868 5866 5865 5864 5863 5861 5860 5859 5858 5856 5855 5854 5853 5852 5851 5850 5849 5849 5848 5848 5848 5848 5848 5848 5849 5850 5850 5850 5851 5851 5852 5852 5853 5853 5853 5853 5854
5871 5870 5868 5867 5866 5864 5863 5862 5861 5859 5858 5856 5854 5853 5852 5851 5849 5848 5847 5846 5845 5844 5843 5843 5842 5842 5842 5842 5842 5842 5843 5843 5844 5844 5845 5846 5846 5847 5847 5848 5848 5849 5849
5867 5865 5864 5863 5861 5860 5858 5857 5856 5854 5853 5851 5849 5848 5846 5845 5843 5842 5841 5839 5838 5838 5837 5837 5836 5836 5836 5836 5836 5836 5837 5837 5838 5838 5839 5839 5840 5841 5841 5842 5842 5843 5844
5862 5861 5860 5858 5856 5855 5853 5852 5850 5849 5848 5846 5844 5842 5840 5839 5837 5835 5834 5832 5832 5831 5831 5830 5830 5830 5829 5829 5829 5830 5830 5831 5831 5832 5833 5833 5834 5835 5835 5836 5837 5837 5838
5857 5856 5855 5853 5852 5850 5848 5847 5845 5843 5842 5840 5838 5836 5834 5832 5830 5828 5827 5825 5825 5824 5824 5823 5823 5823 5823 5823 5823 5824 5824 5824 5825 5826 5826 5827 5828 5828 5829 5830 5830 5831 5832
5853 5851 5850 5848 5847 5845 5843 5841 5839 5837 5835 5833 5831 5829 5827 5825 5823 5821 5819 5818 5817 5817 5817 5816 5816 5816 5816 5816 5816 5817 5817 5818 5818 5819 5820 5820 5821 5822 5823 5823 5824 5825 5826
5847 5846 5844 5843 5841 5839 5837 5835 5833 5831 5829 5827 5824 5821 5819 5817 5815 5813 5811 5810 5809 5809 5809 5809 5808 5808 5809 5809 5810 5810 5810 5812 5812 5812 5813 5814 5815 5815 5816 5817 5817 5818 5819
5842 5841 5839 5837 5835 5833 5831 5829 5827 5824 5822 5819 5817 5814 5812 5809 5807 5805 5803 5802 5801 5801 5801 5801 5801 5801 5801 5802 5802 5803 5804 5804 5805 5806 5806 5807 5808 5809 5810 5810 5811 5812 5813
5837 5835 5833 5831 5829 5827 5825 5822 5820 5817 5815 5812 5809 5807 5804 5802 5799 5798 5796 5795 5794 5794 5794 5793 5793 5793 5794 5794 5795 5796 5796 5797 5798 5799 5800 5800 5801 5802 5803 5804 5805 5805 5806
5832 5830 5827 5825 5823 5821 5818 5816 5813 5810 5807 5804 5802 5799 5797 5794 5792 5791 5789 5788 5787 5786 5786 5786 5786 5786 5786 5787 5787 5788 5789 5790 5791 5792 5793 5794 5795 5795 5796 5797 5798 5799 5800
5826 5824 5821 5819 5817 5814 5812 5809 5806 5803 5800 5797 5794 5792 5789 5787 5785 5784 5782 5781 5779 5779 5778 5778 5778 5779 5779 5780 5780 5781 5782 5783 5784 5785 5786 5787 5788 5789 5790 5791 5792 5792 5793